EW4858 Weather Reports


Display with metric or nautical units.
time (UTC)temp
F
wind
direction
speed
MPH
gust
MPH
rain 1hr
in
rain 24hr
in
rain mn
in
humidity
%
barometer
mb
20260903180017 77 50 2.0 6.0 0.00 0.00 0.00 47 1010.2
20260903174506 76 98 2.0 8.0 0.00 0.00 0.00 52 1010.4
20260903173007 75 360 1.0 5.0 0.00 0.00 0.00 55 1010.6
20260903171607 73 360 0.0 5.0 0.00 0.00 0.00 58 1010.7
20260903170056 72 36 2.0 5.0 0.00 0.00 0.00 58 1010.6
20260903164552 71 62 1.0 4.0 0.00 0.00 0.00 61 1010.7
20260903163048 70 94 0.0 0.0 0.00 0.00 0.00 62 1010.7
20260903161547 68 43 0.0 0.0 0.00 0.00 0.00 65 1010.8
20260903160041 67 43 0.0 2.0 0.00 0.00 0.00 67 1010.9
20260903154539 66 254 0.0 0.0 0.00 0.00 0.00 69 1010.9
20260903153036 65 254 0.0 0.0 0.00 0.00 0.00 70 1010.8
20260903151535 65 254 0.0 0.0 0.00 0.00 0.00 70 1010.9
20260903150044 64 254 0.0 0.0 0.00 0.00 0.00 70 1011.0
20260903144539 63 254 0.0 0.0 0.00 0.00 0.00 71 1011.0
20260903143040 60 254 0.0 0.0 0.00 0.00 0.00 72 1010.9
20260903141535 59 254 0.0 0.0 0.00 0.00 0.00 74 1010.8
20260903140027 57 254 0.0 3.0 0.00 0.00 0.00 79 1010.6
20260903134543 57 254 0.0 0.0 0.00 0.00 0.00 79 1010.5
20260903133029 57 254 0.0 0.0 0.00 0.00 0.00 78 1010.3
20260903131527 57 254 0.0 3.0 0.00 0.00 0.00 79 1010.3
20260903130024 57 254 1.0 3.0 0.00 0.00 0.00 79 1010.4
20260903124523 57 254 0.0 3.0 0.00 0.00 0.00 79 1010.4
20260903123027 57 254 1.0 4.0 0.00 0.00 0.00 80 1010.3
20260903121526 57 254 1.0 5.0 0.00 0.00 0.00 81 1010.2
20260903120022 58 254 0.0 4.0 0.00 0.00 0.00 81 1010.1
20260903114526 58 254 2.0 5.0 0.00 0.00 0.00 81 1010.2
20260903113020 58 254 1.0 4.0 0.00 0.00 0.00 82 1010.2
20260903111518 58 254 0.0 4.0 0.00 0.00 0.00 82 1010.4
20260903110016 58 254 0.0 4.0 0.00 0.00 0.00 82 1010.3
20260903104516 59 254 2.0 6.0 0.00 0.00 0.00 81 1010.4
20260903103015 59 239 2.0 4.0 0.00 0.00 0.00 81 1010.3
20260903101512 59 238 2.0 4.0 0.00 0.00 0.00 81 1010.3
20260903100011 59 238 0.0 4.0 0.00 0.00 0.00 81 1010.4
20260903094509 60 238 0.0 4.0 0.00 0.00 0.00 81 1010.5
20260903093015 60 238 0.0 4.0 0.00 0.00 0.00 80 1010.6
20260903091505 61 238 0.0 0.0 0.00 0.00 0.00 80 1010.7
20260903090004 61 238 0.0 0.0 0.00 0.00 0.00 80 1010.8
20260903084503 61 238 0.0 0.0 0.00 0.00 0.00 80 1010.9
20260903083100 61 238 0.0 0.0 0.00 0.00 0.00 80 1011.1
20260903081559 61 238 0.0 0.0 0.00 0.00 0.00 79 1011.2
20260903080057 61 238 0.0 4.0 0.00 0.00 0.00 79 1011.2
20260903074555 62 238 1.0 3.0 0.00 0.00 0.00 78 1011.2
20260903073100 63 238 0.0 3.0 0.00 0.00 0.00 79 1011.2
20260903071553 63 200 0.0 0.0 0.00 0.00 0.00 81 1011.2
20260903070047 64 163 0.0 0.0 0.00 0.00 0.00 81 1011.1
20260903064547 64 163 0.0 0.0 0.00 0.00 0.00 80 1011.2
20260903063047 65 163 0.0 0.0 0.00 0.00 0.00 80 1011.2
20260903061547 66 132 0.0 0.0 0.00 0.00 0.00 81 1011.1
20260903060046 66 132 0.0 0.0 0.00 0.00 0.00 81 1011.2
20260903054545 67 132 0.0 0.0 0.00 0.00 0.00 81 1011.3
20260903053045 67 132 0.0 3.0 0.00 0.00 0.00 81 1011.4
20260903051551 67 121 1.0 3.0 0.00 0.00 0.00 80 1011.3
20260903050044 67 95 1.0 3.0 0.00 0.00 0.00 79 1011.4
20260903044547 68 140 0.0 3.0 0.00 0.00 0.00 78 1011.3
20260903043043 68 105 0.0 5.0 0.00 0.00 0.00 78 1011.3
20260903041542 68 130 0.0 3.0 0.00 0.00 0.00 77 1011.2
20260903040043 68 108 2.0 5.0 0.00 0.00 0.00 76 1011.0
20260903034542 69 113 3.0 7.0 0.00 0.00 0.00 75 1010.9
20260903033041 69 111 3.0 7.0 0.00 0.00 0.00 73 1010.7
20260903031543 70 121 2.0 5.0 0.00 0.00 0.00 69 1010.6
20260903030041 71 94 4.0 7.0 0.00 0.00 0.00 64 1010.4
20260903024540 72 89 0.0 7.0 0.00 0.00 0.00 60 1010.3
20260903023056 73 73 4.0 8.0 0.00 0.00 0.00 59 1010.2
20260903021544 74 81 4.0 6.0 0.00 0.00 0.00 58 1010.2
20260903020038 75 62 4.0 7.0 0.00 0.00 0.00 56 1010.1
20260903014539 77 78 3.0 8.0 0.00 0.00 0.00 54 1010.0
20260903013039 78 77 2.0 7.0 0.00 0.00 0.00 51 1009.9
20260903011537 78 15 4.0 8.0 0.00 0.00 0.00 49 1009.8
20260903010037 79 49 4.0 8.0 0.00 0.00 0.00 48 1009.8
20260903004651 79 61 5.0 9.0 0.00 0.00 0.00 49 1009.8
20260903003036 80 40 4.0 11.0 0.00 0.00 0.00 48 1009.7
20260903001535 80 51 6.0 9.0 0.00 0.00 0.00 47 1009.7
20260903000033 80 107 4.0 11.0 0.00 0.00 0.00 48 1009.8
20260902234631 80 42 6.0 9.0 0.00 0.00 0.00 48 1009.9
20260902233120 81 40 6.0 12.0 0.00 0.00 0.00 47 1009.9
20260902230048 81 45 7.0 13.0 0.00 0.00 0.00 50 1010.1
20260902224548 81 5 5.0 10.0 0.00 0.00 0.00 49 1010.1
20260902223046 82 63 5.0 13.0 0.00 0.00 0.00 48 1010.2
20260902221553 81 63 6.0 14.0 0.00 0.00 0.00 49 1010.4
20260902220045 82 47 5.0 14.0 0.00 0.00 0.00 49 1010.4
20260902214547 82 42 6.0 13.0 0.00 0.00 0.00 49 1010.4
20260902213051 82 65 7.0 12.0 0.00 0.00 0.00 47 1010.4
20260902211547 83 44 6.0 13.0 0.00 0.00 0.00 46 1010.4
20260902210043 84 64 6.0 14.0 0.00 0.00 0.00 46 1010.4
20260902204643 85 60 6.0 11.0 0.00 0.00 0.00 43 1010.3
20260902203045 85 46 2.0 12.0 0.00 0.00 0.00 40 1010.4
20260902201539 85 63 7.0 12.0 0.00 0.00 0.00 40 1010.6
20260902200038 85 348 1.0 10.0 0.00 0.00 0.00 41 1010.6
20260902194536 84 47 5.0 11.0 0.00 0.00 0.00 44 1010.9
20260902193038 84 86 5.0 10.0 0.00 0.00 0.00 44 1011.0
20260902191530 83 50 5.0 10.0 0.00 0.00 0.00 45 1011.4
20260902190028 82 59 2.0 8.0 0.00 0.00 0.00 44 1011.5
20260902184525 81 41 2.0 6.0 0.00 0.00 0.00 47 1011.6
20260902183022 80 44 4.0 9.0 0.00 0.00 0.00 51 1011.8
20260902181515 78 34 2.0 6.0 0.00 0.00 0.00 55 1012.0